| time (UTC) | temp F | wind direction | speed knots | gust knots | rain 1hr in | rain 24hr in | rain mn in | humidity % | barometer mb |
| 20260503184535 | 77 | 348 | 2.6 | 6.1 | 0.00 | 0.00 | 0.00 | 45 | 1015.1 |
| 20260503183035 | 76 | 348 | 2.6 | 6.1 | 0.00 | 0.00 | 0.00 | 45 | 1015.2 |
| 20260503181612 | 74 | 338 | 2.6 | 5.2 | 0.00 | 0.00 | 0.00 | 45 | 1015.4 |
| 20260503180037 | 75 | 342 | 0.9 | 3.5 | 0.00 | 0.00 | 0.00 | 43 | 1015.5 |
| 20260503173031 | 75 | 344 | 0.9 | 4.3 | 0.00 | 0.00 | 0.00 | 42 | 1015.7 |
| 20260503171533 | 75 | 271 | 0.9 | 3.5 | 0.00 | 0.00 | 0.00 | 44 | 1015.7 |
| 20260503120110 | 51 | 180 | 0.0 | 1.7 | 0.00 | 0.00 | 0.00 | 76 | 1015.8 |
| 20260503100141 | 57 | 183 | 3.5 | 5.2 | 0.00 | 0.00 | 0.00 | 65 | 1015.7 |
| 20260503071536 | 55 | 202 | 1.7 | 2.6 | 0.00 | 0.00 | 0.00 | 82 | 1015.7 |
| 20260503060111 | 57 | 202 | 0.0 | 1.7 | 0.00 | 0.00 | 0.00 | 79 | 1015.6 |
| 20260503054537 | 58 | 202 | 0.9 | 2.6 | 0.00 | 0.00 | 0.00 | 76 | 1015.7 |
| 20260503053035 | 60 | 164 | 0.9 | 3.5 | 0.00 | 0.00 | 0.00 | 71 | 1015.6 |
| 20260503051532 | 61 | 135 | 1.7 | 2.6 | 0.00 | 0.00 | 0.00 | 72 | 1015.5 |
| 20260503050035 | 60 | 109 | 0.9 | 3.5 | 0.00 | 0.00 | 0.00 | 69 | 1015.5 |
| 20260503044535 | 62 | 165 | 1.7 | 5.2 | 0.00 | 0.00 | 0.00 | 64 | 1015.4 |
| 20260503043037 | 62 | 99 | 1.7 | 4.3 | 0.00 | 0.00 | 0.00 | 63 | 1015.3 |
| 20260503041536 | 63 | 176 | 0.9 | 3.5 | 0.00 | 0.00 | 0.00 | 61 | 1015.0 |
| 20260503040040 | 62 | 157 | 0.9 | 3.5 | 0.00 | 0.00 | 0.00 | 63 | 1014.8 |
| 20260503034537 | 63 | 194 | 0.9 | 2.6 | 0.00 | 0.00 | 0.00 | 64 | 1014.6 |
| 20260503033036 | 64 | 194 | 2.6 | 3.5 | 0.00 | 0.00 | 0.00 | 64 | 1014.3 |
| 20260503031533 | 66 | 185 | 1.7 | 3.5 | 0.00 | 0.00 | 0.00 | 64 | 1014.0 |
| 20260503030032 | 68 | 180 | 0.9 | 3.5 | 0.00 | 0.00 | 0.00 | 63 | 1013.7 |
| 20260503021534 | 72 | 202 | 0.0 | 3.5 | 0.00 | 0.00 | 0.00 | 59 | 1013.4 |
| 20260503020043 | 74 | 202 | 0.0 | 0.9 | 0.00 | 0.00 | 0.00 | 59 | 1013.4 |
| 20260503020037 | 76 | 170 | 0.9 | 2.6 | 0.00 | 0.00 | 0.00 | 53 | 1013.3 |
| 20260503013036 | 77 | 45 | 0.0 | 1.7 | 0.00 | 0.00 | 0.00 | 49 | 1013.4 |
| 20260503011534 | 78 | 16 | 0.9 | 3.5 | 0.00 | 0.00 | 0.00 | 46 | 1013.4 |
| 20260503010111 | 78 | 13 | 0.9 | 3.5 | 0.00 | 0.00 | 0.00 | 43 | 1013.3 |
| 20260503004534 | 80 | 38 | 2.6 | 6.1 | 0.00 | 0.00 | 0.00 | 34 | 1013.3 |
| 20260503003126 | 81 | 88 | 0.9 | 6.1 | 0.00 | 0.00 | 0.00 | 34 | 1013.2 |
| 20260503001608 | 81 | 90 | 0.9 | 3.5 | 0.00 | 0.00 | 0.00 | 33 | 1013.3 |
| 20260503000032 | 82 | 186 | 0.9 | 4.3 | 0.00 | 0.00 | 0.00 | 33 | 1013.5 |
| 20260502234534 | 82 | 91 | 1.7 | 6.1 | 0.00 | 0.00 | 0.00 | 33 | 1013.7 |
| 20260502233038 | 82 | 121 | 1.7 | 5.2 | 0.00 | 0.00 | 0.00 | 34 | 1014.0 |
| 20260502230044 | 80 | 26 | 2.6 | 7.8 | 0.00 | 0.00 | 0.00 | 39 | 1014.3 |
| 20260502223032 | 79 | 316 | 1.7 | 5.2 | 0.00 | 0.00 | 0.00 | 42 | 1014.5 |
| 20260502221609 | 77 | 355 | 3.5 | 7.8 | 0.00 | 0.00 | 0.00 | 47 | 1014.7 |
| 20260502220109 | 76 | 339 | 2.6 | 7.0 | 0.00 | 0.00 | 0.00 | 49 | 1014.9 |
| 20260502214536 | 74 | 303 | 2.6 | 5.2 | 0.00 | 0.00 | 0.00 | 52 | 1015.0 |
| 20260502213143 | 72 | 298 | 2.6 | 5.2 | 0.00 | 0.00 | 0.00 | 54 | 1015.3 |
| 20260502210032 | 70 | 312 | 0.9 | 3.5 | 0.00 | 0.00 | 0.00 | 57 | 1015.7 |
| 20260502204529 | 70 | 302 | 2.6 | 4.3 | 0.00 | 0.00 | 0.00 | 59 | 1015.6 |
| 20260502203036 | 70 | 305 | 2.6 | 4.3 | 0.00 | 0.00 | 0.00 | 64 | 1015.7 |
| 20260502201534 | 69 | 14 | 1.7 | 4.3 | 0.00 | 0.00 | 0.00 | 68 | 1015.8 |
| 20260502194537 | 64 | 8 | 0.9 | 2.6 | 0.00 | 0.00 | 0.00 | 70 | 1016.3 |
| 20260502193036 | 67 | 20 | 1.7 | 6.1 | 0.00 | 0.00 | 0.00 | 65 | 1016.7 |